YUNHAI 3 (54235 NORAD) Tracking and Keplerian Element Data

This shows tracking and keplerian element data for the satellite.

Feedback or suggestion? Click here.




ElementValue
Catalog54235
NameYUNHAI 3
Epoch Orbit892
Epoch Day14.15168462
Epoch Year2023
RAAN23.2928
Inclination98.8179
Eccentricity0.0001427
Argument of Perigee80.1807
Mean Anonmoly279.9524
Mean Motion14.13291691
Decay Rate1.3E-07
L11 54235U 22151A 23014.15168462 .00000013 00000+0 30398-4 0 9993
L22 54235 98.8179 23.2928 0001427 80.1807 279.9524 14.13291691 8921



Live tracking and technical data element details for YUNHAI 3 (NORAD 54235). YUNHAI 3 can be tracked NOW for your location showing map with azimuth and elevation plus other details from your city location.







IsCatalogInMostPopularTable: catalog: 54235, numindb: 13
Update: records affected: 1



GetName: 54235 YUNHAI 3

Hit Count: updated at: Fri, 27 Jan 2023 21:51:01 GMT